Orbital Elements at Epoch 2459200.5 (2020-Dec-17.0) TDB
Reference: JPL 24 (heliocentric ecliptic J2000)
Element | Value | Uncertainty (1-sigma) | Units |
e | .2328196294049661 | 3.846e-08 | |
a | 2.420842092671819 | 7.8635e-09 | au |
q | 1.857222533808023 | 9.3217e-08 | au |
i | 10.17000868501721 | 5.8107e-06 | deg |
node | 350.594521116376 | 2.3964e-05 | deg |
peri | 80.74014201217121 | 2.8593e-05 | deg |
M | 6.166339861480384 | 1.2095e-05 | deg |
tp | 2459176.934694371299 (2020-Nov-23.43469437) | 4.6225e-05 | TDB |
period | 1375.777238508492 3.77 | 6.7033e-06 1.835e-08 | d yr |
n | .2616702689385117 | 1.275e-09 | deg/d |
Q | 2.984461651535614 | 9.6943e-09 | au |
|
| | Orbit Determination Parameters
Additional Information
|